Flag for U.S.A. Weather past 2 weeks in South Bend, Indiana, U.S.A.

Now
74 °F

Broken clouds.


Feels Like: 73 °F
Forecast: 68 / 89 °F
Wind: 5 mph from West

Location: Michiana Regional Airport

Current Time: Sep 4, 2015 at 10:03:33 PM

Latest Report: Sep 4, 2015 at 8:54 PM


Visibility: 10 mi

Pressure: 30.03 "Hg

Humidity: 85%

Dew point: 69 °F

Location of South BendLocation

Historic Weather in South Bend — Graph

°F

South Bend temperature yesterday

Maximum temperature yesterday: 90 °F (at 3:54 PM)
Minimum temperature yesterday: 70 °F (at 6:54 AM)
Average temperature yesterday: 79 °F

Past Weeks' High & Low Weather Summary

 TemperatureHumidityPressure
High90 °F (Sep 3, 3:54 PM)100% (Aug 27, 8:00 AM)30.25 "Hg (Aug 27, 8:00 AM)
Low48 °F (Aug 27, 5:54 AM)38% (Aug 24, 1:54 PM)29.83 "Hg (Aug 23, 3:54 PM)
Average69 °F76%30.05 "Hg
* Reported Aug 20 8:54 PM — Sep 4 8:54 PM, South Bend, Weather by CustomWeather, © 2015

Note: Actual official high and low records may vary slightly from our data, if they occured in-between our weather recording intervals... More about our weather records

Advertising

South Bend weather history for previous 24 hours

 ConditionsComfort  
Time TempWeatherWind HumidityBarometerVisibility
8:54 PM
Fri, Sep 4
74 °FBroken clouds.5 mph85%30.03 "Hg10 mi
7:54 PM77 °FScattered clouds.No wind77%30.02 "Hg10 mi
6:54 PM79 °FPassing clouds.3 mph72%30.02 "Hg10 mi
5:54 PM78 °FPassing clouds.8 mph74%30.02 "Hg10 mi
4:54 PM77 °FSunny.6 mph77%30.03 "Hg10 mi
3:54 PM80 °FSunny.9 mph71%30.00 "Hg10 mi
2:54 PM81 °FScattered clouds.6 mph72%30.00 "Hg10 mi
1:54 PM83 °FBroken clouds.7 mph65%30.01 "Hg10 mi
12:54 PM79 °FSunny.6 mph72%30.02 "Hg10 mi
11:54 AM76 °FScattered clouds.3 mph74%30.03 "Hg10 mi
10:54 AM74 °FOvercast.No wind79%30.02 "Hg10 mi
9:54 AM70 °FLow clouds.No wind87%30.02 "Hg10 mi
8:54 AM69 °FLow clouds.No wind90%30.01 "Hg10 mi
7:54 AM68 °FLow clouds.3 mph93%29.99 "Hg7 mi
6:54 AM68 °FLow clouds.No wind93%29.98 "Hg10 mi
5:54 AM67 °FPartly cloudy.No wind93%29.96 "Hg10 mi
4:54 AM67 °FClear.No wind93%29.95 "Hg10 mi
3:54 AM67 °FClear.No wind93%29.94 "Hg10 mi
2:54 AM68 °FClear.No wind93%29.94 "Hg10 mi
1:54 AM68 °FClear.3 mph93%29.94 "Hg10 mi
12:54 AM70 °FPassing clouds.7 mph90%29.93 "Hg10 mi
11:54 PM
Thu, Sep 3
71 °FPassing clouds.3 mph90%29.93 "Hg8 mi
10:54 PM73 °FPassing clouds.8 mph88%29.92 "Hg8 mi
Weather by CustomWeather, © 2015

See weather overviewHow to use our weather pages